This demonstration page uses our WeatherBlox Daily Observations layout. Learn more.

Left ArrowRight Arrow

Hourly Observations for June 2, 2019

Temp ( °F °C ) Dew Point ( °F °C ) Humidity (%) Winds ( mph kmh ) Pressure ( in mb ) Visibility ( mi km ) Precip ( " mm )
12:56 am 00:56 Clear 59 15 51 10.6 75 75 NE 9 15 29.99 1016 10 16 0.00 0.00
1:56 am 01:56 Clear 58 14.4 50 10 75 75 ENE 9 15 30.00 1016 10 16 0.00 0.00
2:56 am 02:56 Clear 56 13.3 50 10 81 81 ENE 9 15 30.00 1016 10 16 0.00 0.00
3:56 am 03:56 Clear 54 12.2 50 10 87 87 ENE 8 13 30.01 1016 10 16 0.00 0.00
4:56 am 04:56 Clear 53 11.7 50 10 89 89 SSE 5 7 30.04 1017 10 16 0.00 0.00
5:56 am 05:56 Clear 52 11.1 49 9.4 89 89 E 3 6 30.03 1017 10 16 0.00 0.00
6:56 am 06:56 Sunny 53 11.7 50 10 89 89 NE 3 6 30.04 1017 9 14 0.00 0.00
7:56 am 07:56 Sunny 58 14.4 50 10 75 75 E 6 9 30.05 1018 10 16 0.00 0.00
8:56 am 08:56 Sunny 62 16.7 49 9.4 62 62 E 10 17 30.06 1018 10 16 0.00 0.00
9:56 am 09:56 Mostly Sunny 65 18.3 48 8.9 54 54 ESE 9 15 30.06 1018 10 16 0.00 0.00
10:56 am 10:56 Sunny 68 20 50 10 53 53 ESE 10 17 30.05 1018 10 16 0.00 0.00
11:56 am 11:56 Sunny 71 21.7 51 10.6 49 49 SSE 9 15 30.04 1017 10 16 0.00 0.00
12:56 pm 12:56 Sunny 73 22.8 51 10.6 46 46 E 9 15 30.02 1017 10 16 0.00 0.00
1:56 pm 13:56 Sunny 75 23.9 52 11.1 45 45 SE 6 9 30.01 1016 10 16 0.00 0.00
2:56 pm 14:56 Sunny 77 25 54 12.2 45 45 ESE 8 13 29.99 1016 10 16 0.00 0.00
3:56 pm 15:56 Sunny 79 26.1 55 12.8 44 44 SSE 13 20 29.96 1015 10 16 0.00 0.00
4:56 pm 16:56 Sunny 80 26.7 54 12.2 41 41 SE 13 20 29.93 1014 10 16 0.00 0.00
5:56 pm 17:56 Sunny 79 26.1 54 12.2 42 42 SE 16 26 29.93 1013 10 16 0.00 0.00
6:56 pm 18:56 Sunny 78 25.6 54 12.2 43 43 SSE 14 22 29.92 1013 10 16 0.00 0.00
7:56 pm 19:56 Sunny 75 23.9 54 12.2 48 48 SSE 14 22 29.90 1013 10 16 0.00 0.00
8:56 pm 20:56 Sunny 73 22.8 54 12.2 51 51 SSE 13 20 29.92 1013 10 16 0.00 0.00
9:56 pm 21:56 Clear 68 20 55 12.8 63 63 SE 9 15 29.93 1014 10 16 0.00 0.00
10:56 pm 22:56 Clear 67 19.4 54 12.2 63 63 ESE 9 15 29.96 1014 10 16 0.00 0.00
11:56 pm 23:56 Clear 65 18.3 54 12.2 68 68 ESE 10 17 29.94 1014 10 16 0.00 0.00

Powered by AerisWeather